FALCON 9 DEB (52596 NORAD) Tracking and Keplerian Element Data

This shows tracking and keplerian element data for the satellite.

Feedback or suggestion? Click here.




ElementValue
Catalog52596
NameFALCON 9 DEB
Epoch Orbit574
Epoch Day166.93915034
Epoch Year2022
RAAN124.476
Inclination53.2218
Eccentricity0.0006495
Argument of Perigee18.787
Mean Anonmoly341.3404
Mean Motion16.08591223
Decay Rate0.00687883
L11 52596U 22051BH 22166.93915034 .00687883 25749-3 78058-3 0 9999
L22 52596 53.2218 124.4760 0006495 18.7870 341.3404 16.08591223 5741

Live tracking and technical data element details for FALCON 9 DEB (NORAD 52596). FALCON 9 DEB can be tracked NOW for your location showing map with azimuth and elevation plus other details from your city location.

Track the satellite on the map from your city or location and see movement details for azimuth, elevation, latitude, longitude, range, height, and movement on the map or in text.







IsCatalogInMostPopularTable: catalog: 52596, numindb: 3
Update: records affected: 1



GetName: 52596 FALCON 9 DEB

Hit Count: updated at: Sat, 25 Jun 2022 04:06:47 GMT